Latest Weather Observations for Williamtown

IDN60901

Issued at 11:01 pm EST Tuesday 7 July 2015 (issued every 10 minutes, with the page automatically refreshed every 10 minutes)

About weather observations | Map of Sydney area stations | Latest observations for Sydney area | Other Formats
Station Details ID: 061078 Name: WILLIAMTOWN RAAF Lat: -32.79 Lon: 151.84 Height: 9.0 m
Data from the previous 72 hours. | See also: Recent months at Williamtown
Date/Time
EST
Tmp

°C
App
Tmp
°C
Dew
Point
°C
Rel
Hum
%
Delta-T

°C
Wind Press
QNH
hPa
Press
MSL
hPa
Rain
since
9 am
mm
Dir
 
Spd
km/h
Gust
km/h
Spd
kts
Gust
kts
07/11:00pm 10.2 7.2 9.4 95 0.4 W 15 17 8 9 1025.0 1025.0 6.0
07/10:30pm 10.3 7.4 9.5 95 0.4 WSW 15 17 8 9 1025.1 1025.1 5.2
07/10:00pm 10.6 8.5 9.6 93 0.5 WSW 11 15 6 8 1025.0 1025.0 5.0
07/09:30pm 10.6 8.1 9.6 93 0.5 W 13 15 7 8 1024.8 1024.8 3.8
07/09:00pm 10.9 8.3 9.3 90 0.8 WSW 13 17 7 9 1024.6 1024.6 3.4
07/08:30pm 11.0 9.7 9.8 92 0.6 SE 7 11 4 6 1024.4 1024.4 3.4
07/08:00pm 11.0 8.9 9.6 91 0.7 SSW 11 15 6 8 1024.3 1024.3 3.4
07/07:30pm 11.1 7.8 9.7 91 0.7 SSW 17 28 9 15 1024.1 1024.1 2.4
07/07:00pm 11.0 8.1 9.8 92 0.6 SW 15 19 8 10 1023.7 1023.7 2.2
07/06:30pm 11.2 8.8 10.0 92 0.6 SSW 13 20 7 11 1023.4 1023.4 2.2
07/05:30pm 11.5 9.8 9.9 90 0.8 W 9 11 5 6 1022.5 1022.5 1.2
07/05:24pm 11.4 9.4 10.0 91 0.7 W 11 11 6 6 1022.5 1022.5 1.2
07/05:00pm 12.2 8.9 9.6 84 1.3 SSW 17 26 9 14 1022.4 1022.4 0.2
07/04:30pm 12.3 9.0 9.7 84 1.3 SW 17 26 9 14 1021.9 1021.9 0.2
07/04:00pm 12.3 8.7 10.4 88 1.0 SSW 20 26 11 14 1021.7 1021.7 0.0
07/03:30pm 12.8 8.1 9.2 79 1.8 SSW 24 32 13 17 1021.4 1021.4 0.0
07/03:00pm 14.3 9.5 7.4 63 3.4 SSW 22 30 12 16 1020.9 1020.9 0.0
07/02:30pm 13.9 8.9 8.0 67 2.9 SSW 24 32 13 17 1020.7 1020.7 0.0
07/02:00pm 14.6 9.8 7.2 61 3.6 SSW 22 32 12 17 1020.3 1020.3 0.0
07/01:30pm 14.7 8.2 4.8 51 4.6 SSW 28 37 15 20 1020.0 1020.0 0.0
07/01:00pm 15.6 9.0 4.1 46 5.3 SW 28 37 15 20 1019.8 1019.8 0.0
07/12:30pm 16.3 9.9 3.1 41 6.0 SW 26 37 14 20 1019.7 1019.7 0.0
07/12:00pm 15.8 10.6 3.6 44 5.6 WSW 20 32 11 17 1019.7 1019.7 0.0
07/11:30am 15.1 9.9 3.4 45 5.3 W 20 30 11 16 1020.0 1020.0 0.0
07/11:00am 14.3 8.2 2.8 46 5.1 WNW 24 32 13 17 1020.4 1020.4 0.0
07/10:30am 13.6 7.5 3.0 48 4.7 WNW 24 33 13 18 1020.5 1020.5 0.0
07/09:30am 11.7 4.8 2.7 54 3.9 WNW 28 35 15 19 1020.3 1020.3 0.0
07/09:00am 10.6 4.4 2.4 57 3.5 W 24 32 13 17 1020.1 1020.1 0.0
07/08:30am 9.4 3.6 2.5 62 2.9 W 22 30 12 16 1019.9 1019.9 0.0
07/08:00am 8.5 1.9 2.2 64 2.6 WNW 26 33 14 18 1019.6 1019.6 0.0
07/07:30am 7.8 0.5 2.2 68 2.3 WNW 30 37 16 20 1019.3 1019.3 0.0
07/07:00am 7.3 1.1 1.9 68 2.2 WNW 24 33 13 18 1019.0 1019.0 0.0
07/06:30am 7.0 0.4 1.8 69 2.1 WNW 26 33 14 18 1018.5 1018.5 0.0
07/05:30am 7.5 0.1 1.6 66 2.4 WNW 30 37 16 20 1017.7 1017.7 0.0
07/05:00am 7.7 1.0 1.5 65 2.5 WNW 26 33 14 18 1017.6 1017.6 0.0
07/04:30am 7.8 0.7 1.4 64 2.6 WNW 28 35 15 19 1017.2 1017.2 0.0
07/04:00am 7.9 0.1 1.5 64 2.6 WNW 32 39 17 21 1017.2 1017.2 0.0
07/03:30am 7.8 0.8 1.7 65 2.5 WNW 28 37 15 20 1017.0 1017.0 0.0
07/03:00am 7.7 0.6 1.5 65 2.5 WNW 28 35 15 19 1016.9 1016.9 0.0
07/02:30am 7.9 1.3 1.8 65 2.5 WNW 26 33 14 18 1016.8 1016.8 0.0
07/02:00am 8.4 1.3 1.6 62 2.8 WNW 28 37 15 20 1016.8 1016.8 0.0
07/01:30am 8.3 1.3 1.7 63 2.7 WNW 28 41 15 22 1016.9 1016.9 0.0
07/01:00am 8.6 1.2 1.8 62 2.8 WNW 30 37 16 20 1016.9 1016.9 0.0
07/12:30am 8.5 1.9 2.0 63 2.7 WNW 26 33 14 18 1016.9 1016.9 0.0
07/12:00am 8.8 2.5 1.8 61 2.9 WNW 24 33 13 18 1016.9 1016.9 0.0
 
Date/Time
EST
Tmp

°C
App
Tmp
°C
Dew
Point
°C
Rel
Hum
%
Delta-T

°C
Wind Press
QNH
hPa
Press
MSL
hPa
Rain
since
9 am
mm
Dir
 
Spd
km/h
Gust
km/h
Spd
kts
Gust
kts
06/11:30pm 8.9 3.4 1.6 60 3.0 WNW 20 28 11 15 1017.1 1017.1 0.0
06/11:00pm 9.1 3.2 1.6 59 3.1 WNW 22 28 12 15 1017.0 1017.0 0.0
06/10:30pm 9.1 3.7 1.3 58 3.2 WNW 19 26 10 14 1017.1 1017.1 0.0
06/10:00pm 9.4 3.8 1.1 56 3.4 WNW 20 26 11 14 1016.9 1016.9 0.0
06/09:30pm 9.2 4.5 1.1 57 3.3 WNW 15 20 8 11 1016.8 1016.8 0.0
06/09:00pm 10.3 4.9 1.1 53 3.8 W 19 26 10 14 1016.7 1016.7 0.0
06/08:30pm 10.9 5.2 0.7 49 4.2 WNW 20 30 11 16 1016.5 1016.5 0.0
06/08:00pm 11.3 5.2 0.6 47 4.4 WNW 22 28 12 15 1016.3 1016.3 0.0
06/07:30pm 11.8 5.7 0.4 45 4.7 WNW 22 32 12 17 1016.1 1016.1 0.0
06/07:00pm 12.0 5.9 0.4 45 4.8 WNW 22 30 12 16 1016.0 1016.0 0.0
06/06:30pm 12.5 6.0 0.2 43 5.1 WNW 24 32 13 17 1015.7 1015.7 0.0
06/06:00pm 12.5 6.7 -0.2 41 5.2 WNW 20 33 11 18 1015.3 1015.3 0.0
06/05:30pm 12.5 7.2 -0.5 40 5.3 WNW 17 22 9 12 1014.9 1014.9 0.0
06/05:00pm 13.8 7.7 -2.0 33 6.3 WNW 20 30 11 16 1014.4 1014.4 0.0
06/04:30pm 14.8 8.1 -1.0 34 6.5 WNW 24 32 13 17 1014.3 1014.3 0.0
06/04:00pm 15.7 8.6 -1.6 30 7.1 WNW 26 35 14 19 1014.0 1014.0 0.0
06/03:30pm 16.3 8.4 -1.2 30 7.3 WNW 30 46 16 25 1014.0 1014.0 0.0
06/03:24pm 16.3 8.7 -2.0 28 7.5 WNW 28 46 15 25 1013.9 1013.9 0.0
06/03:00pm 16.8 9.6 -1.9 28 7.7 WNW 26 33 14 18 1014.0 1014.0 0.0
06/02:42pm 16.7 9.1 -2.5 27 7.8 WNW 28 48 15 26 1013.9 1013.9 0.0
06/02:30pm 16.6 9.1 -1.4 29 7.5 WNW 28 39 15 21 1013.8 1013.8 0.0
06/02:00pm 17.0 9.3 -0.3 31 7.4 WNW 30 46 16 25 1013.7 1013.7 0.0
06/01:30pm 16.7 9.3 -0.5 31 7.3 WNW 28 50 15 27 1013.8 1013.8 0.0
06/01:09pm 17.0 9.0 1.4 35 6.9 WNW 33 52 18 28 1014.0 1014.0 0.0
06/01:00pm 16.5 8.1 1.3 36 6.7 WNW 35 50 19 27 1014.1 1014.1 0.0
06/12:54pm 16.3 8.5 1.6 37 6.5 WNW 32 50 17 27 1014.2 1014.2 0.0
06/12:30pm 16.3 7.2 1.6 37 6.5 WNW 39 52 21 28 1014.6 1014.6 0.0
06/12:00pm 15.8 8.0 2.7 41 5.9 WNW 33 46 18 25 1015.1 1015.1 0.0
06/11:30am 15.5 7.0 3.4 44 5.5 WNW 37 54 20 29 1015.5 1015.5 0.0
06/11:00am 14.9 6.0 3.1 45 5.3 WNW 39 52 21 28 1015.7 1015.7 0.0
06/10:36am 14.2 5.2 2.7 46 5.1 WNW 39 57 21 31 1016.1 1016.1 0.0
06/10:30am 14.1 6.0 3.2 48 4.9 WNW 35 50 19 27 1016.1 1016.1 0.0
06/10:00am 13.2 6.3 2.8 49 4.6 NW 28 37 15 20 1016.5 1016.5 0.0
06/09:30am 11.8 5.8 3.1 55 3.8 NW 24 33 13 18 1016.9 1016.9 0.0
06/09:00am 11.0 4.3 3.5 60 3.3 WNW 28 35 15 19 1017.1 1017.1 0.0
06/08:54am 10.9 4.9 3.4 60 3.3 NW 24 35 13 19 1017.1 1017.1 0.0
06/08:30am 9.9 7.0 4.8 70 2.3 NNW 9 11 5 6 1017.2 1017.2 0.0
06/08:00am 8.3 5.6 3.9 74 1.9 NW 7 11 4 6 1017.4 1017.4 0.0
06/07:30am 7.5 3.6 3.2 74 1.8 NW 13 20 7 11 1017.4 1017.4 0.0
06/07:00am 4.7 1.0 2.5 86 0.9 NW 11 15 6 8 1017.4 1017.4 0.0
06/06:30am 5.6 1.3 3.2 84 1.0 NNW 15 17 8 9 1017.2 1017.2 0.0
06/06:00am 5.4 1.6 4.0 91 0.6 NNW 13 17 7 9 1016.9 1016.9 0.0
06/05:30am 4.9 1.0 3.4 90 0.6 NW 13 15 7 8 1016.9 1016.9 0.0
06/05:00am 4.1 1.0 3.4 95 0.3 NW 9 11 5 6 1016.9 1016.9 0.0
06/04:30am 4.7 3.5 4.5 99 0.1 CALM 0 2 0 1 1016.9 1016.9 0.0
06/04:00am 5.8 2.2 4.9 94 0.4 WNW 13 13 7 7 1017.0 1017.0 0.0
06/03:30am 5.7 2.8 4.5 92 0.5 NW 9 13 5 7 1017.2 1017.2 0.0
06/03:00am 5.6 1.6 4.7 94 0.4 NW 15 15 8 8 1017.5 1017.5 0.0
06/02:30am 6.0 2.0 4.8 92 0.5 NW 15 17 8 9 1017.9 1017.9 0.0
06/02:00am 5.7 2.5 5.0 95 0.3 NW 11 13 6 7 1018.0 1018.0 0.0
06/01:30am 5.4 2.5 4.9 97 0.2 WNW 9 9 5 5 1018.3 1018.3 0.0
06/01:00am 5.9 3.1 5.2 95 0.3 NNW 9 11 5 6 1018.3 1018.3 0.0
06/12:30am 5.0 3.7 4.3 95 0.3 CALM 0 0 0 0 1018.5 1018.5 0.0
06/12:00am 4.5 3.1 3.8 95 0.3 CALM 0 0 0 0 1018.6 1018.6 0.0
 
Date/Time
EST
Tmp

°C
App
Tmp
°C
Dew
Point
°C
Rel
Hum
%
Delta-T

°C
Wind Press
QNH
hPa
Press
MSL
hPa
Rain
since
9 am
mm
Dir
 
Spd
km/h
Gust
km/h
Spd
kts
Gust
kts
05/11:30pm 5.0 3.7 4.3 95 0.3 CALM 0 0 0 0 1018.6 1018.6 0.0
05/11:00pm 5.4 4.2 4.7 95 0.3 CALM 0 0 0 0 1018.7 1018.7 0.0
05/10:30pm 5.0 3.7 4.3 95 0.3 CALM 0 0 0 0 1018.9 1018.9 0.0
05/10:00pm 5.8 4.7 4.9 94 0.4 CALM 0 0 0 0 1018.9 1018.9 0.0
05/09:30pm 6.3 4.0 4.7 89 0.7 NW 6 9 3 5 1019.0 1019.0 0.0
05/09:00pm 6.2 5.2 5.5 95 0.3 CALM 0 0 0 0 1019.1 1019.1 0.0
05/08:30pm 6.4 5.3 5.3 93 0.5 CALM 0 0 0 0 1019.3 1019.3 0.0
05/08:00pm 6.8 5.8 5.7 93 0.5 CALM 0 0 0 0 1019.3 1019.3 0.0
05/07:30pm 8.5 7.7 6.3 86 1.0 CALM 0 0 0 0 1019.1 1019.1 0.0
05/07:00pm 9.1 6.2 6.5 84 1.2 N 11 13 6 7 1019.0 1019.0 0.0
05/06:30pm 7.9 5.7 6.1 88 0.8 NNE 7 11 4 6 1018.9 1018.9 0.0
05/06:00pm 9.8 7.9 6.8 81 1.4 NE 6 9 3 5 1018.7 1018.7 0.0
05/05:30pm 10.8 9.2 6.5 75 2.0 NW 4 7 2 4 1018.7 1018.7 0.0
05/05:00pm 13.8 11.5 5.7 58 3.8 WNW 7 9 4 5 1018.6 1018.6 0.0
05/04:30pm 16.0 12.2 4.1 45 5.5 WNW 13 17 7 9 1018.6 1018.6 0.0
05/04:00pm 17.3 13.5 3.8 40 6.3 WNW 13 19 7 10 1018.7 1018.7 0.0
05/03:30pm 17.9 12.9 3.5 38 6.7 WNW 19 26 10 14 1018.5 1018.5 0.0
05/03:00pm 18.0 13.3 3.3 37 6.8 WNW 17 24 9 13 1018.4 1018.4 0.0
05/02:30pm 18.1 12.9 3.5 38 6.8 WNW 20 32 11 17 1018.5 1018.5 0.0
05/02:00pm 17.9 11.9 3.5 38 6.7 W 24 33 13 18 1018.7 1018.7 0.0
05/01:30pm 17.7 12.5 3.5 38 6.6 NW 20 35 11 19 1018.9 1018.9 0.0
05/01:00pm 16.8 10.7 3.0 39 6.3 WNW 24 30 13 16 1019.3 1019.3 0.0
05/12:30pm 16.3 11.1 2.2 38 6.3 NW 19 26 10 14 1020.0 1020.0 0.0
05/12:00pm 15.3 9.4 1.9 40 5.9 NW 22 28 12 15 1020.5 1020.5 0.0
05/11:30am 14.0 8.6 2.4 45 5.1 NW 20 32 11 17 1021.3 1021.3 0.0
05/11:00am 12.4 6.1 1.6 47 4.6 NW 24 30 13 16 1021.9 1021.9 0.0
05/10:30am 11.5 6.5 1.5 50 4.2 NW 17 22 9 12 1022.4 1022.4 0.0
05/10:00am 10.4 5.7 0.9 52 3.9 NW 15 19 8 10 1022.4 1022.4 0.0
05/09:30am 9.5 4.4 0.9 55 3.5 NW 17 20 9 11 1022.5 1022.5 0.0
05/09:00am 8.7 3.9 0.1 55 3.4 NW 15 19 8 10 1022.3 1022.3 0.0
05/08:30am 7.1 2.7 0.2 61 2.7 NW 13 17 7 9 1022.4 1022.4 0.0
05/08:00am 5.5 0.7 0.0 68 2.1 NW 15 19 8 10 1022.5 1022.5 0.0
05/07:30am 4.7 0.3 0.2 72 1.7 NW 13 15 7 8 1022.3 1022.3 0.0
05/07:00am 4.7 -1.0 -0.7 68 2.0 NW 19 26 10 14 1022.2 1022.2 0.0
05/06:30am 4.6 -0.3 -0.5 69 1.9 NW 15 19 8 10 1022.1 1022.1 0.0
05/06:00am 4.7 -0.6 -0.7 68 2.0 NW 17 20 9 11 1021.9 1021.9 0.0
05/05:30am 4.4 -0.5 -0.8 69 1.9 NW 15 17 8 9 1021.9 1021.9 0.0
05/05:00am 4.1 -0.5 -0.8 70 1.8 NW 13 15 7 8 1021.6 1021.6 0.0
05/04:30am 4.4 0.6 -0.4 71 1.8 NW 9 11 5 6 1021.6 1021.6 0.0
05/04:00am 4.6 0.5 -0.2 71 1.8 NW 11 13 6 7 1021.5 1021.5 0.0
05/03:30am 4.4 0.0 0.2 74 1.6 NW 13 17 7 9 1021.7 1021.7 0.0
05/03:00am 4.8 0.7 -0.3 69 1.9 WNW 11 15 6 8 1021.8 1021.8 0.0
05/02:30am 5.0 1.3 -0.3 68 2.0 WNW 9 13 5 7 1021.8 1021.8 0.0
05/02:00am 5.9 1.8 -0.4 64 2.4 NW 11 13 6 7 1021.9 1021.9 0.0
05/01:30am 6.6 2.0 -0.8 59 2.8 NNW 13 17 7 9 1021.7 1021.7 0.0
05/01:00am 6.2 1.7 -0.4 62 2.5 NW 13 15 7 8 1021.8 1021.8 0.0
05/12:30am 6.7 2.2 -0.4 60 2.7 WNW 13 15 7 8 1021.8 1021.8 0.0
05/12:00am 6.4 2.6 -0.4 62 2.6 NW 9 11 5 6 1021.9 1021.9 0.0
 
Date/Time
EST
Tmp

°C
App
Tmp
°C
Dew
Point
°C
Rel
Hum
%
Delta-T

°C
Wind Press
QNH
hPa
Press
MSL
hPa
Rain
since
9 am
mm
Dir
 
Spd
km/h
Gust
km/h
Spd
kts
Gust
kts
04/11:30pm 6.9 2.1 -0.1 61 2.7 NW 15 17 8 9 1021.9 1021.9 0.0

Latest Capital City Observations: Canberra | Sydney | Melbourne | Brisbane | Adelaide | Perth | Hobart | Darwin

Other Formats:

Comma delimited format used in spreadsheet applications
http://www.bom.gov.au/fwo/IDN60901/IDN60901.94776.axf

JavaScript Object Notation format (JSON) in row-major order
http://www.bom.gov.au/fwo/IDN60901/IDN60901.94776.json